Location: Rehoboth Beach
(38.7438°N, 75.1341°W)
Time: 01:45:26
(UTC-04:00)

Cosmos 1452 Rocket - Visible Passes

Search period start: 01 August 2014 00:00
Search period end: 11 August 2014 00:00
Orbit: 769 x 776 km, 74.1° (Epoch: 31 July)

Date Brightness Start Highest point End Pass type
(mag) Time Alt. Az. Time Alt. Az. Time Alt. Az.
01 Aug 5.7 01:29:06 10° NW 01:30:36 16° WNW 01:30:36 16° WNW visible
01 Aug 4.9 23:10:54 10° N 23:15:03 26° ENE 23:15:03 26° ENE visible
02 Aug 5.2 00:52:43 10° NW 00:55:23 26° WNW 00:55:23 26° WNW visible
02 Aug 5.4 22:35:59 10° NNE 22:39:18 17° ENE 22:39:51 16° ENE visible
03 Aug 4.6 00:16:41 10° NNW 00:20:12 41° NW 00:20:12 41° NW visible
03 Aug 4.1 23:40:55 10° NNW 23:45:02 54° N 23:45:02 54° N visible
04 Aug 4.2 23:05:21 10° N 23:09:53 45° NE 23:09:53 45° NE visible
05 Aug 5.8 00:48:29 10° NW 00:50:14 16° WNW 00:50:14 16° WNW visible
05 Aug 4.7 22:30:01 10° N 22:34:33 28° ENE 22:34:46 28° ENE visible
06 Aug 5.1 00:12:00 10° NW 00:15:07 28° WNW 00:15:07 28° WNW visible
06 Aug 5.2 21:55:02 10° NNE 21:58:34 18° ENE 21:59:40 17° ENE visible
06 Aug 4.3 23:35:56 10° NNW 23:40:01 47° WNW 23:40:01 47° WNW visible
07 Aug 5.7 21:21:06 10° NE 21:22:27 11° NE 21:23:48 10° ENE visible
07 Aug 3.6 23:00:07 10° NNW 23:04:58 74° N 23:04:58 74° N visible
08 Aug 3.8 22:24:31 10° N 22:29:40 50° ENE 22:29:56 50° ENE visible
09 Aug 5.7 00:07:53 10° NW 00:10:17 17° W 00:10:17 17° W visible
09 Aug 4.5 21:49:08 10° N 21:53:48 31° ENE 21:54:55 28° E visible
09 Aug 5.0 23:31:18 10° NW 23:35:17 30° W 23:35:17 30° W visible
10 Aug 5.1 21:14:05 10° NNE 21:17:49 19° ENE 21:19:57 15° E visible
10 Aug 4.0 22:55:10 10° NNW 23:00:17 52° WSW 23:00:19 52° WSW visible
